SSTL S1-4

导读

SSTL S1-4是英国萨里卫星技术有限公司(SSTL)研制的高分辨率光学遥感卫星,于2018年9月16日由印度PSLV-XL火箭发射进入580公里太阳同步轨道。卫星基于SSTL-300S1平台建造,发射重量444千克,设计寿命超过7年,由中国北京二十一世纪空间技术应用公司租用,服务于对地遥感观测任务,是SSTL小型商用卫星领域的典型成果。

基本信息
目录编号:
43618
目录名称:
SSTL S1-4
国际标识:
2018-071A
轨道中心:
EARTH
卫星名称:
SSTL S1-4
卫星全名:
--
卫星状态:
在轨 (已飞行2918 天)
发射日期:
2018-09-16 UTC
国别 :
英国 (GB)
星等 :
--
该卫星已列入 空间交会检测服务 Space Conjunction Data Service (SCDS) ,当前飞行风险评估等级: 无高风险
轨道信息
数据来源 国际轨道数据
星历时间: 2026-09-12T14:58:45+0800
6小时前
查看轨道信息
半长轴: 6954.263km
偏心率: 0.000235
轨道倾角: 97.488°
近地点辐角 245.679°
升交点赤经 123.233°
平近点角 114.419°
近地点: 574.491km
远地点: 577.761km
周期: 96.191分钟
每日圈数: 14.970151
详细信息
使用方式:
暂无
2D轨道图
3D轨道图
轨道高度分析图
轨道倾角分析图
轨道综合分析图
查看轨道综合分析图
交会数据列表
事件ID 空间交会对象 最接近时刻(TCA) 交会距离 交会风险概率(CRP) 交会风险指数(CRI) 操作
CDM_260912-174402-405104-361828
2026-09-12T
17:44:51+0000
1.250 km
极远距离
1.272261E-5 中风险 0.57
CDM_260914-042804-361805-528222
2026-09-14T
04:28:37+0000
2.937 km
极远距离
1.380569E-6 低风险 0.38
与全量物体交会距离演化趋势
与全量物体交会风险概率演化趋势